Location: Hilton Head Island
(32.2163°N, 80.7526°W)
Time: 21:30:58
(UTC-05:00)

Tiros 1 despin weight - Pass Details

Date: 16 February 2026
Orbit: 556 x 593 km, 48.2° (Epoch: 7 March)

Event Time Altitude Azimuth Distance (km) Brightness Sun altitude
Rises 16:46:35 0° 276° (W) 2,734 ? 15.8°
Reaches altitude 10° 16:49:32 10° 297° (WNW) 1,836 ? 15.2°
Maximum altitude 16:52:15 16° 338° (NNW) 1,465 ? 14.7°
Drops below altitude 10° 16:54:57 10° 18° (NNE) 1,836 ? 14.2°
Sets 16:57:55 0° 40° (NE) 2,732 ? 13.6°
